Starlink 31538

operational
NORAD ID: 59525 Int'l Des: 2024-073 Owner: SPXS Country: US Constellation: starlink
LEOCIRCULAR

关于 Starlink 31538

正在加载描述...

实时位置

正在加载3D地球...

即将过境

高度历史

Altitude vs Time

uPlot chart will show altitude changes over time

两行轨道根数

1 59525U 24073Q 25305.50481597 .00000766 00000-0 37349-4 0 9995
2 59525 43.0036 321.7485 0000466 284.9064 75.1736 15.27579974 86574
Epoch: Nov 1, 2025 • Age: 53 hours

当前状态

高度 490.6 km
速度 7.62 km/s
星下点 -29.69°S, 30.45°W
发射日期 Apr 17, 2024
运行时间 1.5 years
类型 internet

技术详情

分类 Payload
质量 730.00 kg
干质量 700.00 kg
总质量 730.00 kg
长度 0.30 m
直径 4.10 m
跨度 29.00 m
形状 Box + pan
制造商 SPXS
平台类型 Starlink V2M
阶段状态 In Orbit
所有者/国家 SPXS/US

大型星座

Loading constellations...